Location: Newark
(41.0000°N, 28.9500°W)
Time: 02:02:43
(UTC+00:00)

N. Korean satellite - Pass Details

Date: 30 January 2020
Orbit: 456 x 505 km, 97.2° (Epoch: 25 February)

Event Time Altitude Azimuth Distance (km) Brightness Sun altitude
Rises 08:17:38 0° 1° (N) 2,558 10.1 -10.0°
Reaches altitude 10° 08:19:49 10° 352° (N) 1,682 9.1 -9.6°
Maximum altitude 08:23:04 32° 288° (WNW) 863 7.3 -9.0°
Drops below altitude 10° 08:26:21 10° 224° (SW) 1,693 9.0 -8.4°
Sets 08:28:34 0° 214° (SW) 2,577 10.1 -8.0°
